Погода в Микшине

Россия / Тверская область     57°14′29″N   35°42′44″E
темп.,
°C
ветер,
м/с
пор.,
м/с
влажн.,
%
обл.,
%
осадки,
мм/ч
давл.,
гПа
погр.,
м
25 февраля, чт
чт2500:00−9ююз4995100 0.6 1022283
03:00−4ююз51396100 3.7 1017467
06:00+2зюз41399100 1.4 1012461
09:00+3зсз515100100 1.5 1011620
12:00+2зсз413100100 0.0 1011574
15:00+2зсз313100100 0.0 1012599
18:00+2зсз21099100 0.0 1012364
21:00+1зюз2799100 0.2 1012157
26 февраля, пт
пт2600:00+2з41299100 0.7 1010357
03:00+3зюз41299100 1.1 1009418
06:00+3зюз51298100 0.3 1006428
09:00+3зюз51398100 0.4 1003477
12:00+3з51498100 1.1 10011022
15:00+2з71583100 1.1 10011215
18:00+1зсз7169292 0.1 10001237
21:00+1зсз7159292 0.1 10011200
27 февраля, сб
сб2700:00+1зсз6138999 0.0 1000962
03:00+1зсз61395100 0.2 1001901
06:000сз61197100 0.7 1002785
09:00−2с51191100 0.9 1005566
12:00−3с598569 0.0 1007513
15:00−2с598566 0.0 1009596
18:00−3с399388 0.0 1011524
21:00−4ссз2109686 0.3 1014451
28 февраля, вс
вс2800:00−3с399785 0.3 1015504
03:00−4с289789 0.5 1017340
06:00−4ссз399487 0.1 1018525
09:00−4ссз499290 0.2 1019586
12:00−3ссз478696 0.1 1020629
15:00−2ссз468395 0.1 1021700
18:00−2ссз3785100 0.0 1022417
21:00−3сз3787100 0.1 1024448
1 марта, пн
пн100:00−3з249299 0.0 1025164
03:00−6зюз379663 0.0 1025158
06:00−3з389599 0.1 1024353
09:00−1з4109398 0.2 1022510
12:00+1зсз479496 0.0 1026526
15:00+1з488998 0.1 1025639
18:00+1з51291100 0.0 1024648
21:00+1з51391100 0.0 1022636